Hourly Data Report for October 06, 2017

All times are specified in Local Standard Time (LST). Add 1 hour to adjust for Daylight Saving Time where and when it is observed.

HART ISLAND (AUT)
NOVA SCOTIA

45°21'00.000" N
60°59'00.000" W
8.20 m
8202318
71419
WRN

Download Data

Hourly Data (October 2017)
Hourly Data Report for October 6, 2017
Temp Definition
°C
Dew Point Temp Definition
°C
Rel Hum Definition
%
Wind Dir Definition
10's deg

Wind Spd Definition
km/h
Visibility Definition
km
Stn Press Definition
kPa
Hmdx Definition


Wind Chill Definition


Weather Definition


TIME
00:00 11.6 10.7 94 24 9   101.28     LegendNANA
01:00 11.6 10.5 93 24 8   101.30     LegendNANA
02:00 11.3 9.9 91 21 8   101.24     LegendNANA
03:00 12.2 11.0 92 21 15   101.21     LegendNANA
04:00 12.6 11.4 93 21 17   101.25     LegendNANA
05:00 13.6 12.4 93 20 19   101.25     LegendNANA
06:00 13.1 12.1 93 20 17   101.25     LegendNANA
07:00 13.9 12.4 90 22 19   101.29     LegendNANA
08:00 14.7 12.6 88 24 26   101.34     LegendNANA
09:00 15.5 11.3 76 26 20   101.39     LegendNANA
10:00 16.0 11.4 74 27 22   101.39     LegendNANA
11:00 16.8 11.7 72 29 25   101.40     LegendNANA
12:00 16.7 11.6 72 31 20   101.39     LegendNANA
13:00 16.9 11.4 70 32 15   101.35     LegendNANA
14:00 17.5 11.1 66 32 21   101.39     LegendNANA
15:00 16.4 10.7 69 33 19   101.40     LegendNANA
16:00 15.9 10.0 68 32 25   101.47     LegendNANA
17:00 15.0 10.3 73 19 4   101.48     LegendNANA
18:00 14.8 10.9 78 2 2   101.57     LegendNANA
19:00 14.5 10.7 78 15 7   101.55     LegendNANA
20:00 13.2 10.1 82 23 8   101.61     LegendNANA
21:00 12.5 9.7 83 25 12   101.66     LegendNANA
22:00 12.0 9.1 82 24 12   101.73     LegendNANA
23:00 11.9 9.2 83 23 13   101.78     LegendNANA

Notes on Data Quality.

Legend

  • E = Estimated
  • M = Missing
  • NA = Not Available
  • ‡ = Partner data that is not subject to review by the National Climate Archives
Date modified: